Regional Weather Roundup
Issued by NWS

Home | Current Version | Previous Version | Text Only | Print | Product List | Glossary On
Versions: 1 2 3 4 5 6 7 8 9 10 11 12 13 14 15 16 17 18 19 20 21 22 23 24 25 26 27 28 29 30 31 32 33 34 35 36 37 38 39 40 41 42 43 44 45 46 47 48 49 50
000
ASUS43 KLOT 192209
RWRIL

ILLINOIS REGIONAL WEATHER ROUNDUP
NATIONAL WEATHER SERVICE CHICAGO/ROMEOVILLE IL
500 PM CDT TUE SEP 19 2017

NOTE: "FAIR" INDICATES FEW OR NO CLOUDS BELOW 12,000 FEET WITH NO
SIGNIFICANT WEATHER AND/OR OBSTRUCTIONS TO VISIBILITY.

* THESE STATIONS ARE NOT UNDER NWS QUALITY CONTROL. THEY ALSO MAY NOT
  REPORT WEATHER SUCH AS PRECIPITATION OR FOG.

ILZ001-002-007-009-015-016-024-192300-
NORTHWEST ILLINOIS

CITY           SKY/WX    TMP DP  RH WIND       PRES   REMARKS
MOLINE         SUNNY     81  65  58 E14       29.86F HX  83
STERLING*        N/A     79  66  64 SE7       29.89F HX  81
SAVANNA*       SUNNY     79  64  60 S8        29.88F HX  81
$$

ILZ003-004-008-010-011-017-018-192300-
NORTH CENTRAL ILLINOIS

CITY           SKY/WX    TMP DP  RH WIND       PRES   REMARKS
ROCKFORD       MOSUNNY   80  62  54 E6        29.90F HX  81
FREEPORT*      MOSUNNY   79  63  58 S3        29.91F HX  81
ROCHELLE*      MOSUNNY   80  65  60 CALM      29.90F HX  81
DE KALB*       MOSUNNY   76  64  67 E7        29.91F
PERU*          SUNNY     77  63  61 SE6       29.89F
$$

ILZ005-006-012>014-019>023-192300-
NORTHEAST ILLINOIS

CITY           SKY/WX    TMP DP  RH WIND       PRES   REMARKS
CHICAGO-OHARE  MOSUNNY   77  61  57 E10       29.92S
CHICAGO-MIDWAY MOSUNNY   75  64  68 E9        29.92S
AURORA         MOSUNNY   78  65  63 E12       29.91S HX  80
LANSING*       MOSUNNY   74  66  77 NE8       29.92S
JOLIET*        SUNNY     80  65  60 E7        29.90F HX  81
WAUKEGAN       PTSUNNY   70  65  84 NE8       29.93S
DUPAGE AIRPORT MOSUNNY   77  63  61 E10       29.91S
KANKAKEE*      MOSUNNY   77  65  65 NE3       29.91S
WHEELING       SUNNY     75  65  70 NE8       29.94S
MORRIS*        MOSUNNY   80  63  55 CALM      29.88F HX  81
ROMEOVILLE*    SUNNY     78  63  60 E6        29.90F HX  80
NORTHERLY ISL    N/A     70  63  78 NE9         N/A
$$

LMZ740>746-192300-
SOUTHERN LAKE MICHIGAN

STATION/POSITION SKY/WX   TEMP    WIND        PRES    VSBY  WAVE
                          AIR SEA DIR/SP/G                  HT/PER
                          (F)     (DEG/KT/KT) (MB)    (MI)  (FT/S)
SOUTHERN BUOY              68 69   20/  6/  6 1013.7F         1/ 4
WILMETTE HARBOR            69 70   40/  8/ 10   N/A           1/ 4
HARRISON CRIB              69      50/  8/  8   N/A
CALUMET HARBOR             70      20/  7/ 10 1012.9S
BURNS HARBOR               69      30/ 10/ 12 1013.9S
MICHIGAN CITY              68      10/ 12/ 13   N/A
MICHIGAN CITY 6N           69 69   20/ 10/ 12   N/A           1/ 3
ST. JOSEPH                 69 69   30/  8/ 10 1013.4          1/ 2
$$

ILZ025>027-034>036-040-047-049-050-058-095>099-192300-
WEST-CENTRAL ILLINOIS

CITY           SKY/WX    TMP DP  RH WIND       PRES   REMARKS
QUINCY         SUNNY     83  66  56 SE8       29.84F HX  85
GALESBURG*     MOSUNNY   80  65  61 SE5       29.88F HX  82
MACOMB*        SUNNY     81  64  56 SE6       29.88F HX  83
JACKSONVILLE*  SUNNY     84  62  46 CALM      29.86F HX  85
PITTSFIELD*    MOSUNNY   85  68  56 SE6       29.87F HX  88
$$

ILZ028>032-037-038-041>044-048-051>054-059>061-192300-
CENTRAL ILLINOIS

CITY           SKY/WX    TMP DP  RH WIND       PRES   REMARKS
PONTIAC        SUNNY     78  67  69 CALM      29.90F HX  80
BLOOMINGTON    MOSUNNY   80  63  55 CALM      29.91S HX  81
DECATUR        SUNNY     83  66  56 N6        29.89F HX  85
PEORIA         MOSUNNY   78  65  63 SE7       29.88F HX  80
LACON*         SUNNY     78  66  68 E3        29.88F
LINCOLN*       SUNNY     82  67  62 CALM      29.89S HX  84
SPRINGFIELD    SUNNY     86  65  49 NE5       29.87F HX  88
TAYLORVILLE    SUNNY     84  63  49 CALM      29.88S HX  85
$$

ILZ033-039-045-046-055>057-062-063-192300-
EAST-CENTRAL ILLINOIS

CITY           SKY/WX    TMP DP  RH WIND       PRES   REMARKS
CHAMPAIGN      SUNNY     82  62  50 W3        29.91S HX  83
RANTOUL*       MOSUNNY   81  66  61 CALM      29.90F HX  83
MATTOON        PTSUNNY   84  65  52 VRB5      29.88S HX  86
PARIS*         MOSUNNY   84  65  52 N5        29.90S HX  86
$$

ILZ079-100>102-192300-
SOUTHWEST ILLINOIS

CITY           SKY/WX    TMP DP  RH WIND       PRES   REMARKS
ALTON          MOSUNNY   86  66  51 SW6       29.87F HX  88
CAHOKIA*       SUNNY     91  62  37 CALM      29.85F HX  91
SPARTA*        SUNNY     86  65  49 CALM      29.88F HX  88
$$

ILZ064>066-069>071-074>076-080>082-084>086-088>090-092>094-192300-
SOUTH-CENTRAL ILLINOIS

CITY           SKY/WX    TMP DP  RH WIND       PRES   REMARKS
CARBONDALE     MOSUNNY   85  68  56 VRB3      29.88F HX  88
CAIRO*         SUNNY     86  73  64 SE5       29.87F HX  92
EFFINGHAM*     MOSUNNY   86  63  46 W3        29.90S HX  86
MARION         PTSUNNY   88  66  48 W6        29.89S HX  90
CENTRALIA*     SUNNY     88  68  50 NW3       29.87F HX  91
SALEM*         MOSUNNY   88  65  46 SW6       29.88F HX  89
METROPOLIS*    HVY RAIN  87  68  52 S6        29.89S HX  91
$$

ILZ067-068-072-073-078-083-087-091-192300-
SOUTHEAST ILLINOIS

CITY           SKY/WX    TMP DP  RH WIND       PRES   REMARKS
LAWRENCEVILLE  MOSUNNY   84  67  56 CALM      29.89F HX  86
FLORA*         PTSUNNY   87  66  50 SW6       29.89S HX  89
FAIRFIELD*     SUNNY     86  67  54 CALM      29.87F HX  88
HARRISBURG*    MOSUNNY   86  67  53 W6        29.89S HX  89
ROBINSON*      MOSUNNY   84  65  53 CALM      29.89F HX  85
CARMI*         MOSUNNY   83  69  63 S5        29.89S HX  86
$$

ABBREVIATIONS USED IN REMARKS
   TC - TEMPERATURE IN CELSIUS
  WCI - WIND CHILL INDEX
   HX - HEAT INDEX
  VSB - VISIBILITY
$$




USA.gov is the U.S. government's official web portal to all federal, state and local government web resources and services.